QPF
0.00 0.00 0.00 0.00 0.00 0.00 0.00 0.00 0.00 0.00 0.00 0.00 0.00 0.00 0.00 0.00 0.00 0.00 0.00 0.00 0.01 0.01 0.02 0.02 0.02 0.02 0.00 0.02 0.18 0.12 0.14 0.23 0.15 0.06 0.00 0.00 0.00 0.00 0.00 0.00 0.00 0.00 0.01
0.00 0.00 0.00 0.00 0.00 0.00 0.00 0.00 0.00 0.00 0.00 0.00 0.00 0.00 0.00 0.00 0.00 0.00 0.00 0.00 0.00 0.00 0.00 0.01 0.05 0.09 0.03 0.07 0.12 0.07 0.13 0.25 0.20 0.03 0.00 0.00 0.00 0.01 0.02 0.00 0.00 0.00 0.00
0.00 0.00 0.00 0.00 0.00 0.00 0.00 0.00 0.00 0.00 0.00 0.00 0.00 0.00 0.00 0.00 0.00 0.00 0.00 0.00 0.00 0.00 0.00 0.01 0.04 0.13 0.04 0.05 0.11 0.07 0.23 0.21 0.13 0.05 0.02 0.01 0.02 0.07 0.06 0.03 0.00 0.00 0.00
0.00 0.00 0.00 0.00 0.00 0.00 0.00 0.00 0.00 0.00 0.00 0.00 0.00 0.00 0.00 0.00 0.00 0.00 0.00 0.00 0.00 0.00 0.00 0.00 0.01 0.03 0.02 0.05 0.07 0.10 0.20 0.17 0.15 0.04 0.01 0.01 0.03 0.05 0.01 0.01 0.00 0.00 0.00
0.00 0.00 0.00 0.00 0.00 0.00 0.00 0.00 0.00 0.00 0.00 0.00 0.00 0.00 0.00 0.00 0.00 0.00 0.00 0.00 0.00 0.00 0.00 0.00 0.00 0.00 0.03 0.06 0.09 0.10 0.14 0.15 0.06 0.02 0.01 0.01 0.02 0.04 0.02 0.00 0.00 0.00 0.00
0.00 0.00 0.00 0.00 0.00 0.00 0.00 0.00 0.00 0.00 0.00 0.00 0.00 0.00 0.00 0.00 0.00 0.00 0.00 0.00 0.00 0.00 0.00 0.00 0.00 0.01 0.06 0.08 0.11 0.10 0.11 0.08 0.06 0.02 0.02 0.01 0.05 0.05 0.01 0.00 0.00 0.00 0.00
0.00 0.00 0.00 0.00 0.00 0.00 0.00 0.00 0.00 0.00 0.00 0.00 0.00 0.00 0.00 0.00 0.00 0.00 0.00 0.00 0.00 0.00 0.00 0.00 0.00 0.00 0.05 0.16 0.15 0.16 0.13 0.09 0.05 0.02 0.03 0.05 0.03 0.01 0.00 0.00 0.01 0.01 0.00
0.00 0.00 0.00 0.00 0.00 0.00 0.00 0.00 0.00 0.00 0.00 0.00 0.00 0.00 0.00 0.00 0.00 0.00 0.00 0.00 0.00 0.00 0.00 0.00 0.00 0.00 0.03 0.18 0.19 0.24 0.20 0.13 0.06 0.02 0.01 0.00 0.00 0.00 0.01 0.04 0.04 0.02 0.01
0.00 0.00 0.00 0.00 0.00 0.00 0.00 0.00 0.00 0.00 0.00 0.00 0.00 0.00 0.00 0.00 0.00 0.00 0.00 0.00 0.00 0.00 0.00 0.00 0.03 0.06 0.20 0.29 0.26 0.19 0.14 0.11 0.06 0.01 0.00 0.00 0.00 0.00 0.02 0.03 0.05 0.03 0.02
0.00 0.00 0.00 0.00 0.00 0.00 0.00 0.00 0.00 0.00 0.00 0.00 0.00 0.00 0.00 0.00 0.00 0.00 0.00 0.00 0.00 0.00 0.00 0.05 0.11 0.12 0.16 0.10 0.11 0.10 0.09 0.06 0.01 0.00 0.00 0.00 0.00 0.00 0.01 0.01 0.00 0.02 0.04
0.00 0.00 0.00 0.00 0.00 0.00 0.00 0.00 0.00 0.00 0.00 0.00 0.00 0.00 0.00 0.00 0.00 0.00 0.00 0.00 0.00 0.00 0.01 0.07 0.07 0.03 0.01 0.04 0.09 0.11 0.10 0.03 0.00 0.00 0.00 0.00 0.00 0.00 0.01 0.00 0.00 0.00 0.03
0.00 0.00 0.00 0.00 0.00 0.00 0.00 0.00 0.00 0.00 0.00 0.00 0.00 0.00 0.00 0.00 0.00 0.00 0.00 0.00 0.00 0.00 0.02 0.09 0.05 0.03 0.04 0.09 0.10 0.09 0.06 0.02 0.00 0.00 0.00 0.00 0.00 0.00 0.00 0.00 0.00 0.01 0.03
0.00 0.00 0.00 0.00 0.00 0.00 0.00 0.00 0.00 0.00 0.00 0.00 0.00 0.00 0.00 0.00 0.00 0.00 0.00 0.00 0.00 0.01 0.04 0.14 0.16 0.13 0.13 0.15 0.09 0.07 0.05 0.01 0.00 0.00 0.00 0.00 0.00 0.00 0.00 0.00 0.00 0.00 0.00
0.00 0.00 0.00 0.00 0.00 0.00 0.00 0.00 0.00 0.00 0.00 0.00 0.00 0.00 0.00 0.00 0.00 0.00 0.00 0.00 0.00 0.03 0.10 0.17 0.17 0.13 0.13 0.12 0.10 0.06 0.02 0.00 0.00 0.00 0.00 0.00 0.00 0.00 0.00 0.00 0.00 0.00 0.00
0.00 0.00 0.00 0.00 0.00 0.00 0.00 0.00 0.00 0.00 0.00 0.00 0.00 0.00 0.00 0.00 0.00 0.00 0.00 0.00 0.02 0.07 0.12 0.16 0.14 0.09 0.07 0.04 0.03 0.01 0.00 0.00 0.00 0.00 0.00 0.00 0.00 0.00 0.00 0.00 0.00 0.00 0.00
0.00 0.00 0.00 0.00 0.00 0.00 0.00 0.00 0.00 0.00 0.00 0.00 0.00 0.00 0.00 0.00 0.00 0.00 0.00 0.00 0.05 0.12 0.10 0.09 0.06 0.02 0.01 0.00 0.00 0.00 0.00 0.00 0.00 0.00 0.00 0.00 0.00 0.00 0.00 0.00 0.00 0.00 0.00
0.00 0.00 0.00 0.00 0.00 0.01 0.00 0.00 0.00 0.00 0.00 0.00 0.00 0.00 0.00 0.00 0.00 0.00 0.01 0.03 0.10 0.17 0.10 0.03 0.00 0.00 0.00 0.00 0.00 0.00 0.00 0.00 0.00 0.00 0.00 0.00 0.00 0.00 0.00 0.00 0.00 0.00 0.00
0.00 0.00 0.00 0.00 0.00 0.00 0.00 0.00 0.00 0.00 0.00 0.00 0.00 0.00 0.00 0.00 0.01 0.01 0.03 0.07 0.09 0.11 0.09 0.02 0.01 0.00 0.00 0.00 0.00 0.00 0.00 0.00 0.00 0.00 0.00 0.00 0.00 0.00 0.00 0.00 0.00 0.00 0.00
0.00 0.00 0.00 0.00 0.00 0.00 0.00 0.00 0.00 0.00 0.00 0.00 0.00 0.00 0.00 0.02 0.05 0.07 0.06 0.09 0.09 0.06 0.06 0.01 0.00 0.00 0.00 0.00 0.00 0.00 0.00 0.00 0.00 0.00 0.00 0.00 0.00 0.00 0.00 0.00 0.00 0.00 0.00
0.00 0.00 0.00 0.00 0.00 0.01 0.00 0.00 0.00 0.00 0.00 0.00 0.00 0.02 0.04 0.05 0.06 0.04 0.03 0.09 0.10 0.05 0.03 0.00 0.00 0.00 0.00 0.00 0.00 0.00 0.00 0.00 0.00 0.00 0.00 0.00 0.00 0.00 0.00 0.00 0.00 0.00 0.00
0.00 0.00 0.00 0.00 0.00 0.00 0.00 0.01 0.00 0.00 0.00 0.00 0.02 0.07 0.09 0.08 0.07 0.03 0.03 0.04 0.04 0.04 0.00 0.00 0.00 0.00 0.00 0.00 0.00 0.00 0.00 0.00 0.00 0.00 0.01 0.00 0.00 0.00 0.00 0.00 0.00 0.00 0.00
0.00 0.00 0.00 0.00 0.01 0.01 0.01 0.01 0.00 0.00 0.00 0.00 0.03 0.06 0.08 0.08 0.05 0.03 0.02 0.02 0.01 0.00 0.00 0.00 0.00 0.00 0.00 0.00 0.00 0.00 0.00 0.00 0.01 0.01 0.00 0.00 0.00 0.00 0.00 0.00 0.00 0.00 0.00
0.01 0.00 0.00 0.01 0.02 0.01 0.01 0.01 0.00 0.00 0.00 0.01 0.02 0.05 0.04 0.05 0.04 0.02 0.00 0.00 0.00 0.00 0.00 0.00 0.00 0.00 0.00 0.00 0.00 0.00 0.00 0.00 0.00 0.01 0.01 0.00 0.00 0.00 0.00 0.00 0.00 0.00 0.00
0.00 0.00 0.01 0.00 0.00 0.00 0.00 0.00 0.00 0.01 0.01 0.02 0.01 0.01 0.01 0.02 0.01 0.00 0.00 0.00 0.00 0.00 0.00 0.00 0.00 0.00 0.00 0.00 0.00 0.00 0.00 0.00 0.00 0.00 0.00 0.00 0.00 0.00 0.00 0.00 0.00 0.00 0.00
0.00 0.00 0.00 0.00 0.00 0.00 0.00 0.01 0.01 0.01 0.01 0.01 0.01 0.01 0.01 0.00 0.00 0.00 0.00 0.00 0.01 0.01 0.01 0.01 0.01 0.00 0.00 0.00 0.00 0.00 0.00 0.00 0.00 0.00 0.00 0.00 0.00 0.00 0.00 0.00 0.00 0.00 0.00
0.02 0.02 0.01 0.01 0.01 0.01 0.01 0.00 0.00 0.00 0.02 0.02 0.01 0.00 0.00 0.00 0.00 0.00 0.00 0.00 0.01 0.01 0.01 0.01 0.00 0.00 0.00 0.00 0.00 0.00 0.00 0.00 0.00 0.00 0.00 0.00 0.00 0.00 0.00 0.00 0.00 0.00 0.00
MSLP
1003.84 1004.10 1004.52 1004.74 1004.93 1005.19 1005.42 1005.58 1005.87 1006.24 1006.59 1006.96 1006.98 1007.26 1007.46 1007.38 1007.16 1007.25 1007.35 1007.24 1007.53 1007.45 1006.92 1006.91 1006.96 1006.65 1007.08 1007.18 1007.30 1007.28 1007.32 1007.90 1008.30 1007.44 1007.46 1007.30 1006.94 1007.05 1007.26 1007.10 1007.56 1007.83 1008.15
1003.21 1003.76 1004.10 1004.30 1004.73 1005.06 1005.22 1005.36 1005.61 1005.97 1006.25 1006.55 1006.88 1007.14 1006.96 1006.71 1006.75 1006.85 1006.84 1007.05 1006.95 1006.55 1006.35 1006.54 1006.16 1006.53 1005.93 1005.56 1005.99 1005.92 1006.77 1007.31 1007.54 1007.31 1007.09 1007.00 1007.07 1007.32 1007.15 1007.49 1007.94 1007.84 1008.21
1003.87 1004.15 1003.90 1004.10 1004.63 1004.89 1005.02 1005.07 1005.32 1005.61 1005.93 1006.13 1006.28 1006.50 1006.58 1006.62 1006.54 1006.37 1006.52 1006.54 1006.16 1006.15 1005.80 1005.88 1005.43 1005.41 1005.16 1004.75 1004.82 1005.62 1005.95 1006.21 1006.64 1006.94 1006.82 1007.02 1007.48 1007.13 1007.44 1007.81 1008.11 1007.97 1008.26
1002.96 1003.53 1004.12 1003.95 1004.03 1004.34 1004.60 1004.89 1004.98 1005.19 1005.48 1005.66 1005.82 1005.99 1006.09 1006.01 1006.08 1006.02 1005.78 1006.10 1005.66 1005.60 1005.34 1004.92 1004.47 1004.55 1004.49 1004.44 1004.49 1004.81 1004.95 1005.66 1006.06 1006.17 1006.47 1007.04 1007.12 1007.27 1007.21 1007.90 1008.23 1008.22 1008.30
1002.65 1002.60 1003.21 1003.83 1004.10 1004.06 1004.33 1004.47 1004.62 1004.81 1004.95 1005.12 1005.43 1005.41 1005.56 1005.59 1005.48 1005.52 1005.45 1005.48 1005.45 1005.26 1004.84 1004.47 1004.08 1003.77 1003.73 1003.66 1003.82 1003.91 1004.33 1005.01 1005.11 1005.66 1006.34 1006.95 1007.02 1007.11 1007.08 1007.52 1007.96 1008.35 1008.27
1002.48 1002.51 1002.29 1002.78 1003.27 1003.64 1003.97 1004.26 1004.37 1004.45 1004.73 1004.83 1004.95 1005.08 1005.24 1004.93 1004.64 1004.53 1004.61 1004.77 1004.85 1004.73 1004.51 1004.08 1003.52 1003.21 1002.85 1002.82 1002.86 1002.63 1003.05 1003.79 1004.38 1005.02 1005.74 1006.18 1006.34 1006.27 1006.60 1007.34 1007.92 1008.51 1008.53
1002.41 1002.49 1002.18 1002.17 1002.52 1002.80 1003.00 1003.28 1003.60 1003.95 1004.19 1004.39 1004.55 1004.68 1004.70 1004.52 1004.29 1004.05 1003.82 1003.88 1004.26 1004.09 1003.89 1003.37 1002.93 1002.40 1002.24 1002.03 1002.13 1002.31 1002.69 1003.04 1002.76 1003.55 1004.78 1005.18 1005.38 1005.47 1006.01 1006.97 1007.38 1007.73 1007.91
1001.58 1001.57 1001.63 1001.62 1001.66 1001.81 1002.01 1002.37 1002.93 1003.38 1003.63 1003.85 1003.93 1004.07 1004.06 1003.90 1003.69 1003.63 1003.48 1003.42 1003.71 1003.58 1003.22 1002.87 1002.57 1002.00 1001.58 1001.63 1002.06 1002.54 1002.96 1003.53 1003.40 1003.44 1003.67 1004.04 1004.32 1004.79 1005.31 1005.71 1006.55 1007.19 1007.48
1000.67 1000.56 1000.72 1000.75 1000.82 1001.02 1001.33 1001.78 1002.21 1002.72 1002.93 1003.13 1003.15 1003.36 1003.54 1003.55 1003.30 1003.09 1003.11 1003.11 1003.05 1002.88 1002.44 1002.18 1001.91 1001.47 1001.19 1001.73 1002.28 1002.64 1003.08 1003.65 1003.80 1003.43 1003.55 1003.70 1004.12 1004.63 1005.10 1005.66 1006.67 1007.08 1007.42
999.78 999.75 999.91 999.89 999.93 1000.10 1000.22 1000.78 1001.36 1001.70 1002.06 1002.40 1002.39 1002.59 1002.84 1002.86 1002.58 1002.46 1002.53 1002.50 1002.61 1002.32 1001.93 1001.57 1001.28 1000.91 1001.06 1001.27 1001.30 1001.74 1002.84 1003.31 1003.45 1003.74 1003.92 1004.14 1004.56 1004.89 1005.08 1005.41 1006.09 1006.59 1007.17
998.50 998.71 998.60 998.52 998.66 998.87 999.47 999.97 1000.37 1000.92 1001.32 1001.48 1001.51 1001.70 1001.91 1001.94 1001.88 1001.69 1001.85 1001.99 1001.92 1001.80 1001.59 1001.21 1000.80 1000.71 1000.68 1000.57 1000.27 1000.46 1002.11 1002.87 1003.43 1003.76 1004.03 1004.49 1004.79 1005.20 1005.46 1005.54 1005.80 1005.98 1006.57
996.76 997.17 997.29 997.20 997.51 997.91 998.42 998.90 999.49 1000.05 1000.64 1000.83 1001.13 1001.18 1001.10 1001.19 1001.17 1000.91 1000.96 1001.35 1001.10 1001.45 1001.10 1000.66 1000.10 1000.25 1000.52 1000.60 1000.51 1000.66 1002.47 1002.87 1003.45 1003.86 1004.29 1004.79 1005.10 1005.32 1005.34 1005.50 1005.61 1005.86 1006.13
994.92 995.39 995.93 996.41 996.55 996.80 997.35 998.10 998.80 999.33 999.96 1000.27 1000.38 1000.44 1000.46 1000.42 1000.26 1000.24 1000.38 1000.69 1000.78 1001.11 1000.60 999.83 999.85 1000.30 1000.94 1000.66 1001.18 1001.76 1002.34 1002.81 1003.41 1003.96 1004.50 1004.88 1004.96 1005.08 1005.36 1005.54 1005.70 1006.05 1006.23
993.25 993.83 994.45 994.96 995.58 996.11 996.53 997.11 997.79 998.42 998.98 999.31 999.53 999.70 999.72 999.47 999.47 999.46 999.62 999.83 1000.06 1000.31 1000.08 1000.04 1000.04 1000.41 1000.50 1000.73 1002.02 1002.46 1002.13 1002.57 1003.16 1003.89 1004.42 1004.76 1004.90 1005.22 1005.42 1005.60 1006.05 1006.26 1006.43
992.13 992.67 993.28 993.90 994.61 995.07 995.55 996.11 996.69 997.19 997.63 998.15 998.34 998.49 998.67 998.58 998.35 998.29 998.75 999.11 999.24 999.47 999.62 999.77 999.90 1000.19 1000.51 1001.13 1001.80 1001.97 1002.32 1002.79 1003.30 1003.82 1004.25 1004.43 1004.81 1005.21 1005.57 1005.72 1005.96 1006.28 1006.54
991.32 991.96 992.50 993.23 993.96 994.50 995.03 995.60 995.88 996.39 996.97 997.06 997.17 997.73 997.82 997.59 997.59 997.95 998.26 998.58 998.56 999.30 999.10 999.13 999.24 1000.01 1000.22 1001.20 1001.62 1001.88 1002.41 1002.90 1003.31 1003.67 1003.88 1004.19 1004.81 1005.33 1005.61 1005.79 1005.90 1006.20 1006.57
990.69 991.37 991.99 992.67 993.25 993.84 994.47 995.02 995.50 996.03 996.42 996.58 996.76 996.79 997.14 997.28 997.27 997.57 997.84 998.24 998.48 998.95 998.51 998.69 998.62 999.55 1000.43 1001.14 1001.22 1001.70 1002.41 1002.77 1003.06 1003.43 1003.71 1004.26 1004.84 1005.21 1005.40 1005.63 1005.89 1006.14 1006.43
990.34 990.96 991.57 992.10 992.67 993.20 993.66 994.14 994.66 995.07 995.35 995.60 995.73 996.12 996.36 996.65 996.87 997.29 997.54 998.01 998.59 998.39 998.04 997.98 998.40 999.29 1000.10 1000.69 1001.20 1001.70 1002.20 1002.61 1003.14 1003.40 1003.90 1004.48 1004.84 1004.98 1005.36 1005.61 1005.81 1006.13 1006.57
990.02 990.58 991.23 991.67 992.07 992.47 992.97 993.53 993.92 994.18 994.41 994.61 994.79 995.22 995.47 995.94 996.52 996.81 996.94 996.92 996.94 997.19 997.55 998.15 998.40 999.13 1000.07 1000.49 1001.11 1001.43 1001.96 1002.70 1002.88 1003.39 1003.99 1004.36 1004.61 1004.91 1005.34 1005.51 1005.88 1006.29 1006.62
990.09 990.48 991.06 991.39 991.67 991.93 992.28 992.69 992.97 993.20 993.44 993.64 993.94 994.17 994.73 995.28 995.68 996.02 996.21 995.88 996.24 996.40 997.18 997.68 998.50 999.24 999.85 1000.25 1000.64 1001.37 1002.10 1002.47 1002.94 1003.47 1003.92 1004.26 1004.57 1004.86 1005.32 1005.75 1006.16 1006.60 1006.88
990.10 990.38 990.74 991.08 991.42 991.43 991.55 991.86 992.16 992.38 992.46 992.73 992.88 993.16 993.56 993.77 994.32 994.85 994.99 995.38 995.97 996.25 996.82 997.72 998.62 999.03 999.37 999.94 1000.80 1001.35 1001.89 1002.47 1002.91 1003.31 1003.61 1004.10 1004.57 1005.01 1005.43 1005.89 1006.23 1006.46 1006.80
989.56 989.92 990.25 990.53 990.61 990.87 990.95 991.06 991.22 991.48 991.93 992.22 992.53 993.09 993.20 993.37 993.93 994.51 995.20 995.71 996.26 996.60 997.14 997.76 998.29 998.69 999.40 1000.12 1000.76 1001.43 1002.00 1002.42 1002.83 1003.19 1003.72 1004.29 1004.77 1005.22 1005.61 1005.98 1006.37 1006.78 1007.17
988.81 989.03 989.21 989.60 989.97 990.08 990.47 990.60 990.85 991.22 991.64 991.91 992.20 992.68 992.98 993.63 994.12 994.86 995.38 995.93 996.29 996.84 997.43 997.95 998.60 999.39 999.82 1000.43 1000.88 1001.28 1001.91 1002.29 1002.61 1003.06 1003.70 1004.36 1004.98 1005.48 1005.87 1006.42 1006.96 1007.52 1007.96
988.06 988.14 988.41 988.77 989.20 989.69 990.13 990.40 990.79 991.52 991.87 992.22 992.79 993.23 993.38 994.10 994.92 995.46 995.94 996.46 997.08 997.71 998.10 998.52 999.11 999.79 1000.45 1000.93 1001.29 1001.72 1002.13 1002.46 1002.70 1003.25 1003.74 1004.54 1005.52 1006.07 1006.54 1007.20 1007.85 1008.47 1008.99
988.76 988.86 989.26 989.64 990.08 990.53 991.03 991.30 991.70 992.00 992.67 993.40 993.49 993.62 994.72 995.64 996.12 996.70 997.21 997.73 998.18 998.73 999.31 999.67 1000.08 1000.60 1001.00 1001.37 1001.80 1002.23 1002.58 1002.77 1003.16 1003.77 1004.45 1005.19 1005.95 1006.60 1007.21 1007.94 1008.62 1009.31 1009.84
989.83 989.92 990.17 990.52 990.88 991.26 991.58 991.98 992.67 993.19 993.87 994.52 995.10 995.71 996.39 996.92 997.29 997.75 998.26 998.75 999.32 999.86 1000.22 1000.71 1001.10 1001.33 1001.75 1002.25 1002.68 1002.97 1003.18 1003.47 1003.95 1004.39 1004.96 1005.77 1006.60 1007.55 1008.22 1008.90 1009.60 1010.20 1010.86
Thickness
5630 5632 5633 5635 5637 5640 5642 5645 5646 5646 5646 5646 5649 5650 5651 5654 5658 5658 5661 5664 5665 5672 5681 5684 5687 5692 5692 5693 5693 5693 5694 5687 5681 5694 5690 5695 5696 5692 5687 5685 5677 5670 5664
5628 5625 5626 5626 5626 5627 5630 5632 5633 5634 5635 5636 5637 5639 5644 5650 5650 5651 5655 5655 5658 5665 5674 5677 5688 5686 5693 5697 5694 5699 5693 5685 5682 5683 5687 5690 5688 5683 5682 5676 5667 5665 5658
5614 5614 5617 5618 5616 5616 5619 5622 5625 5626 5627 5629 5632 5634 5637 5639 5644 5648 5648 5652 5658 5660 5669 5672 5683 5685 5691 5697 5697 5693 5690 5687 5685 5680 5682 5681 5675 5677 5672 5664 5659 5658 5651
5605 5605 5604 5608 5610 5610 5611 5612 5616 5618 5620 5622 5625 5628 5632 5636 5639 5643 5648 5646 5656 5657 5662 5669 5678 5683 5686 5689 5692 5690 5692 5684 5680 5680 5679 5673 5670 5666 5665 5657 5652 5650 5646
5594 5597 5598 5597 5598 5601 5602 5604 5608 5611 5614 5617 5619 5623 5626 5630 5634 5638 5641 5644 5648 5652 5658 5665 5672 5678 5683 5686 5686 5689 5687 5679 5681 5678 5672 5664 5663 5659 5660 5654 5649 5642 5640
5582 5584 5591 5590 5593 5593 5593 5594 5598 5602 5604 5608 5611 5614 5617 5625 5631 5635 5638 5641 5644 5648 5652 5658 5668 5672 5679 5683 5686 5692 5690 5682 5680 5675 5667 5663 5661 5660 5657 5648 5641 5633 5631
5566 5570 5579 5583 5584 5587 5589 5591 5593 5593 5596 5599 5603 5607 5612 5617 5622 5627 5635 5640 5640 5645 5650 5659 5666 5675 5675 5683 5685 5685 5684 5680 5683 5678 5668 5664 5663 5662 5655 5644 5639 5634 5629
5558 5563 5567 5571 5576 5579 5582 5585 5584 5583 5586 5589 5595 5600 5606 5613 5617 5620 5627 5634 5636 5641 5648 5656 5662 5670 5676 5678 5676 5675 5673 5667 5669 5673 5673 5670 5667 5660 5654 5648 5638 5631 5626
5547 5553 5556 5560 5565 5569 5573 5576 5576 5575 5578 5581 5589 5594 5597 5603 5608 5614 5620 5629 5635 5640 5646 5652 5658 5666 5669 5664 5666 5665 5664 5659 5659 5665 5667 5666 5660 5654 5649 5642 5630 5626 5620
5532 5538 5543 5549 5554 5557 5565 5566 5566 5566 5572 5575 5583 5584 5588 5596 5603 5608 5615 5624 5629 5636 5643 5650 5654 5662 5661 5663 5671 5670 5663 5660 5660 5660 5658 5655 5649 5644 5641 5638 5630 5623 5616
5518 5521 5530 5538 5544 5551 5551 5553 5555 5556 5560 5565 5572 5576 5581 5589 5597 5603 5609 5618 5625 5631 5638 5645 5652 5655 5659 5665 5673 5675 5664 5658 5654 5652 5650 5645 5640 5636 5633 5631 5628 5626 5618
5505 5508 5517 5526 5533 5539 5539 5543 5541 5542 5542 5548 5553 5561 5569 5579 5584 5596 5603 5608 5619 5625 5634 5642 5652 5653 5655 5657 5662 5663 5648 5649 5647 5644 5641 5636 5632 5630 5628 5626 5627 5624 5621
5496 5498 5504 5510 5519 5526 5528 5529 5529 5529 5532 5536 5541 5550 5559 5569 5579 5586 5594 5600 5607 5617 5630 5640 5645 5645 5643 5646 5649 5646 5645 5646 5642 5639 5634 5630 5629 5628 5624 5622 5622 5620 5619
5489 5494 5499 5504 5507 5512 5517 5519 5522 5524 5523 5527 5534 5541 5550 5561 5571 5580 5586 5594 5602 5613 5624 5631 5637 5639 5642 5643 5635 5636 5644 5642 5639 5635 5630 5626 5626 5624 5622 5619 5617 5617 5615
5484 5492 5496 5498 5499 5506 5511 5515 5517 5521 5522 5525 5532 5539 5547 5558 5569 5576 5583 5592 5603 5614 5621 5628 5637 5636 5631 5638 5637 5638 5636 5635 5634 5631 5629 5628 5625 5622 5619 5617 5617 5615 5614
5480 5488 5492 5493 5494 5499 5504 5507 5507 5512 5515 5520 5527 5533 5542 5549 5558 5567 5576 5586 5599 5605 5621 5632 5638 5635 5636 5629 5636 5634 5631 5630 5631 5630 5631 5628 5623 5618 5617 5616 5616 5614 5613
5480 5487 5491 5493 5497 5501 5503 5504 5507 5506 5510 5513 5516 5522 5527 5542 5550 5561 5571 5583 5595 5600 5624 5631 5639 5634 5630 5630 5635 5633 5629 5629 5629 5629 5629 5625 5620 5618 5618 5617 5615 5614 5613
5484 5487 5493 5496 5498 5501 5504 5506 5508 5512 5518 5520 5519 5521 5526 5535 5547 5558 5570 5581 5591 5606 5624 5634 5637 5634 5631 5631 5630 5627 5626 5627 5626 5627 5625 5621 5618 5619 5617 5615 5614 5613 5609
5489 5493 5494 5496 5499 5501 5503 5505 5512 5520 5526 5530 5535 5533 5538 5543 5551 5563 5575 5599 5613 5621 5625 5629 5633 5632 5629 5630 5626 5627 5627 5624 5626 5624 5620 5619 5618 5616 5614 5614 5612 5605 5605
5499 5499 5496 5498 5503 5509 5512 5518 5525 5532 5539 5547 5551 5555 5553 5558 5568 5578 5592 5608 5615 5623 5622 5628 5629 5628 5627 5627 5628 5626 5622 5622 5622 5619 5617 5615 5614 5615 5612 5609 5606 5604 5602
5508 5508 5508 5510 5513 5522 5530 5536 5541 5547 5557 5561 5564 5564 5566 5583 5591 5600 5609 5613 5617 5621 5627 5627 5625 5627 5628 5627 5624 5623 5622 5620 5619 5619 5618 5615 5614 5612 5610 5608 5605 5604 5601
5537 5533 5532 5532 5538 5541 5548 5556 5562 5566 5568 5570 5574 5575 5576 5598 5604 5608 5611 5612 5615 5620 5623 5624 5626 5627 5625 5623 5621 5620 5619 5619 5618 5617 5614 5612 5611 5609 5607 5605 5602 5598 5595
5569 5568 5567 5563 5563 5566 5568 5574 5578 5581 5584 5589 5592 5594 5602 5605 5611 5612 5614 5616 5620 5622 5622 5621 5621 5618 5618 5617 5618 5619 5617 5617 5616 5614 5612 5609 5607 5605 5602 5598 5594 5590 5587
5594 5595 5595 5593 5593 5590 5590 5592 5594 5592 5595 5596 5596 5600 5608 5609 5609 5610 5612 5613 5613 5612 5613 5614 5614 5613 5612 5612 5613 5613 5613 5612 5612 5611 5610 5604 5597 5594 5592 5588 5583 5578 5574
5604 5604 5603 5601 5598 5597 5596 5599 5599 5598 5594 5589 5592 5591 5600 5598 5600 5600 5601 5602 5603 5603 5603 5605 5606 5605 5606 5607 5606 5607 5606 5608 5607 5605 5601 5596 5592 5588 5585 5580 5575 5570 5566
5606 5607 5606 5602 5603 5602 5604 5603 5598 5594 5591 5589 5589 5589 5589 5591 5594 5595 5595 5595 5595 5595 5596 5596 5596 5597 5597 5597 5597 5598 5600 5601 5599 5597 5594 5590 5586 5579 5575 5570 5564 5560 5554